Regional Weather Roundup
Issued by NWS

Home | Current Version | Previous Version | Text Only | Print | Product List | Glossary On
Versions: 1 2 3 4 5 6 7 8 9 10 11 12 13 14 15 16 17 18 19 20 21 22 23 24 25 26 27 28 29 30 31 32 33 34 35 36 37 38 39 40 41 42 43 44 45 46 47 48 49 50
000
ASUS45 KTFX 200519
RWRMT
MONTANA HOURLY WEATHER ROUNDUP
NATIONAL WEATHER SERVICE GREAT FALLS MT
1119 PM MDT TUE AUG 19 2014

NOTE: "FAIR" INDICATES FEW OR NO CLOUDS BELOW 12000 FEET WITH NO
SIGNIFICANT WEATHER AND/OR OBSTRUCTIONS TO VISIBILITY.

* THESE STATIONS ARE NOT UNDER NWS QUALITY CONTROL. THEY DO NOT
   REPORT WEATHER SUCH AS PRECIPITATION OR FOG.

MTZ001>007-043-200600-
WEST OF THE DIVIDE
CITY           SKY/WX    TMP DP  RH WIND       PRES   REMARKS
KALISPELL      LGT RAIN  61  57  87 N3        29.77S
MISSOULA       PTCLDY    64  45  50 CALM      29.79R
BUTTE          MOCLDY    61  43  52 CALM      29.93R
MULLAN PASS    PTCLDY    57  43  60 N3        29.92F
* LINCOLN      N/A       63  42  46 N2G9       N/A
$$

MTZ008-052>055-200600-
SOUTHWEST MONTANA
CITY           SKY/WX    TMP DP  RH WIND       PRES   REMARKS
BOZEMAN        CLOUDY    66  46  49 SW6       29.86S
DILLON         MOCLDY    61  48  62 S5        29.91S
W YELLOWSTONE  LGT RAIN  50  48  93 CALM      30.08F
* BOULDER HILL N/A       63  40  43 S10        N/A
$$

MTZ009>010-012-014-046-048-049-054-200600-
EAST SLOPES AND CENTRAL MONTANA
CITY           SKY/WX    TMP DP  RH WIND       PRES   REMARKS
CUT BANK       MOCLDY    63  48  58 W12       29.76F
GREAT FALLS    MOCLDY    64  46  52 CALM      29.76S
HELENA         CLOUDY    70  48  46 CALM      29.78S
MALMSTROM AFB  MOCLDY    70  45  41 N2        29.77S
* MONARCH      N/A       68  35  30 S11G16     N/A
$$

MTZ011-013-016-021-035-040-045-047-050-051-200600-
NORTH CENTRAL MONTANA
CITY           SKY/WX    TMP DP  RH WIND       PRES   REMARKS
HAVRE          LGT RAIN  73  52  48 NW17G31   29.64R
LEWISTOWN      CLOUDY    72  41  33 NE3       29.76S
* CHESTER      N/A       69  46  44 W10G16     N/A
* DENTON       N/A       72  40  31 W9         N/A
* GEYSER       N/A       70  38  31 SW9        N/A
$$

MTZ017>020-022>027-061-062-200600-
NORTHEAST MONTANA
CITY           SKY/WX    TMP DP  RH WIND       PRES   REMARKS
GLASGOW        PTCLDY    79  45  30 CALM      29.59F
GLENDIVE       MOCLDY    73  57  57 S6        29.66S
JORDAN         CLOUDY    75  52  45 W6        29.64R
SIDNEY         PTCLDY    68  61  78 CALM      29.64F
WOLF POINT     PTCLDY    66  46  49 W5        29.58F
$$

MTZ028>042-056>058-200600-
SOUTHCENTRAL AND SOUTHEAST MONTANA
CITY           SKY/WX    TMP DP  RH WIND       PRES   REMARKS
BAKER          PTCLDY    66  55  68 SE10      29.71S
BILLINGS       CLOUDY    73  45  37 SW10      29.74F
LIVINGSTON     CLOUDY    72  43  35 SW32G45   29.82F
MILES CITY     CLOUDY    82  45  27 S3        29.64S
* LAME DEER    N/A       76  40  27 W10        N/A
$$

REGIONAL REPORTS...DAKOTAS
CITY           SKY/WX    TMP DP  RH WIND       PRES   REMARKS
WILLISTON      CLEAR     75  61  62 SE5       29.64F
DICKINSON      PTCLDY    68  57  68 SE7       29.69F
BEACH          N/A       64  59  84 SE9       29.69F
CROSBY         CLEAR     72  61  68 SE15G21   29.64F
TIOGA          CLEAR     64  64 100 E7        29.71F
WATFORD CITY   CLEAR     70  61  73 SE12      29.64F
BISMARCK       PTCLDY    70  63  79 E6        29.73S
GRAND FORKS    CLEAR     66  63  90 SE6       29.75S
FARGO          CLEAR     68  64  87 SE6       29.77R
BUFFALO SD     PTCLDY    73  57  57 SE20      29.66F
RAPID CITY     PTCLDY    66  61  84 SW3       29.75S
$$

REGIONAL REPORTS...WYOMING/IDAHO/WASHINGTON
CITY           SKY/WX    TMP DP  RH WIND       PRES   REMARKS
GILLETTE       CLOUDY    79  39  24 SW13      29.76F
SHERIDAN       CLOUDY    73  45  37 W6        29.75F
CODY           CLOUDY    66  45  47 CALM      29.86R
YELLOWSTONE LA CLOUDY    48  45  89 W8G17     30.14R
SALMON         MOCLDY    57  52  83 CALM      29.87R
MULLAN PASS    PTCLDY    57  43  60 N3        29.92S
SAND POINT     MOCLDY    64  54  70 SW5       29.73R
SPOKANE        PTCLDY    72  50  46 E3        29.70S
$$

REGIONAL REPORTS...ALBERTA
CITY           SKY/WX    TMP DP  RH WIND       PRES   REMARKS
CALGARY        MOCLDY    55  52  90 NW8       29.78R
LETHBRIDGE     CLEAR     57  54  90 NW3       29.75R
MEDICINE HAT   PTCLDY    61  57  87 NE6       29.66F
EDMONTON       MOCLDY    54  50  86 SW6       29.73R
WATERTON GATE  N/A       59  50  72 SW8        N/A
CARDSTON       N/A       57  50  78 E2         N/A
MILK RIVER     N/A       57  54  90 NW10       N/A
$$

REGIONAL REPORTS...SASKATCHEWAN
CITY           SKY/WX    TMP DP  RH WIND       PRES   REMARKS
SWIFT CURRENT  CLEAR     63  57  81 S6        29.59F
REGINA         TSTM      68  63  84 E10       29.64F
VAL MARIE      N/A       59  50  72 SW1        N/A
ASSINIBOIA     N/A       64  57  78 E8         N/A
CORONACH       N/A       68  59  73 E6         N/A

$$



USA.gov is the U.S. government's official web portal to all federal, state and local government web resources and services.